User: anonymous   Login
Location: Abraham Lincoln Continuation High School
(33.9711°N, 117.3662°W)
Time: 11:58:18
(UTC+00:00)
Language:

Cosmos 2298 Rocket - Orbit

View from above orbital plane
View from above orbital plane
View from above satellite
View from above satellite

Ground track
Ground track

The orbit data is extracted from the following two-line orbital elements,

1 23432U 94083B   20329.82280611 +.00000020 +00000-0 +16574-4 0  9991
2 23432 074.0304 159.8993 0004414 057.8710 313.2891 14.33546184356177
Epoch (UTC): 24 November 2020 19:44:50
Eccentricity: 0.0004414
inclination: 74.0304°
perigee height: 777 km
apogee height: 783 km
right ascension of ascending node: 159.8993°
argument of perigee: 57.8710°
revolutions per day: 14.33546184
mean anomaly at epoch: 313.2891°
orbit number at epoch: 35617

The dashed part of the orbit path shows where the satellite is in the earth's shadow,  

DLR